Flag for Spain Weather past 2 weeks in Mahón, Menorca, Spain

Now
82 °F

Passing clouds.


Feels Like: 83 °F
Forecast: 73 / 83 °F
Wind: 15 mph from West

Location: Menorca / Mahon

Current Time: Jul 30, 2014 at 6:11:32 PM

Latest Report: Jul 30, 2014 at 5:00 PM


Visibility: 19 mi

Pressure: 29.92 "Hg

Humidity: 51%

Dew point: 62 °F

Location of MahónLocation

Historic Weather in Mahón — Graph

°F

Mahón temperature yesterday

Maximum temperature yesterday: 77 °F (at 3:00 PM)
Minimum temperature yesterday: 67 °F (at 11:00 AM)
Average temperature yesterday: 73 °F

Past Weeks' High & Low Weather Summary

 TemperatureHumidityPressure
High89 °F (Jul 20, 2:00 PM)95% (Jul 20, 5:00 AM)30.13 "Hg (Jul 20, 5:00 AM)
Low65 °F (Jul 17, 4:00 AM)33% (Jul 26, 3:00 PM)29.81 "Hg (Jul 20, 6:00 AM)
Average77 °F67%29.97 "Hg
* Reported Jul 15 4:00 PM — Jul 30 4:00 PM, Mahón, Weather by CustomWeather, © 2014

Note: Actual official high and low records may vary slightly from our data, if they occured in-between our weather recording intervals... More about our weather records

Advertising

Mahón weather history for previous 24 hours

 ConditionsComfort  
Time TempWeatherWind HumidityBarometerVisibility
4:00 PM
Jul 30
85 °FWarm.15 mph42%29.93 "HgN/A
3:00 PM84 °FPassing clouds.15 mph46%29.93 "Hg19 mi
2:00 PM83 °FPassing clouds.14 mph45%29.94 "Hg19 mi
1:00 PM82 °FWarm.16 mph56%29.95 "HgN/A
12:00 PM81 °FWarm.15 mph56%29.96 "HgN/A
11:00 AM79 °FScattered clouds.18 mph58%29.95 "Hg16 mi
10:00 AM78 °FWarm.17 mph57%29.94 "HgN/A
9:00 AM75 °FPartly sunny.17 mph63%29.94 "Hg12 mi
8:00 AM74 °FPartly sunny.15 mph64%29.93 "Hg19 mi
7:00 AM72 °FMild.13 mph67%29.93 "HgN/A
6:00 AM71 °FMild.10 mph71%29.94 "HgN/A
5:00 AM66 °FPassing clouds.5 mph77%29.95 "Hg12 mi
4:00 AM67 °FMild.5 mph73%29.95 "HgN/A
3:00 AM67 °FMild.5 mph71%29.96 "HgN/A
2:00 AM67 °FPassing clouds.2 mph70%29.97 "Hg14 mi
1:00 AM68 °FMild.3 mph68%29.97 "HgN/A
12:00 AM68 °FMild.3 mph67%29.97 "HgN/A
11:00 PM
Jul 29
70 °FPassing clouds.8 mph62%29.96 "Hg14 mi
10:00 PM71 °FMild.10 mph59%29.95 "HgN/A
9:00 PM72 °FMild.13 mph56%29.93 "HgN/A
8:00 PM74 °FPassing clouds.18 mph53%29.91 "Hg19 mi
7:00 PM76 °FMild.21 mph49%29.90 "HgN/A
6:00 PM75 °FMild.18 mph49%29.90 "HgN/A
Weather by CustomWeather, © 2014

See weather overviewHow to use our weather pages